BMCB-30 Weather Reports


time (UTC)temp
C
wind
direction
speed
KPH
gust
KPH
rain 1hr
cm
rain 24hr
cm
rain mn
cm
humidity
%
barometer
mb
20260505123044 14 0 0.0 0.0 0.00 0.08 0.03 87 1010.0
20260505122046 15 0 0.0 0.0 0.00 0.08 0.03 85 1009.9
20260505121043 15 0 0.0 0.0 0.00 0.08 0.03 84 1009.9
20260505120044 15 0 0.0 0.0 0.00 0.08 0.03 85 1009.9
20260505115045 15 0 0.0 0.0 0.00 0.08 0.03 84 1009.9
20260505114048 15 0 0.0 0.0 0.00 0.08 0.03 84 1009.9
20260505113043 16 0 0.0 0.0 0.00 0.08 0.03 85 1009.9
20260505112046 15 0 0.0 0.0 0.00 0.08 0.03 86 1010.0
20260505111045 15 0 0.0 0.0 0.00 0.08 0.03 86 1010.1
20260505100044 14 0 0.0 0.0 0.00 0.08 0.03 89 1010.5
20260505095046 15 0 0.0 0.0 0.00 0.08 0.03 88 1010.5
20260505094045 14 0 0.0 0.0 0.00 0.08 0.03 88 1010.5
20260505093045 15 0 0.0 0.0 0.00 0.08 0.03 89 1010.5
20260505092044 14 0 0.0 0.0 0.00 0.08 0.03 88 1010.6
20260505091048 14 0 0.0 0.0 0.00 0.08 0.03 90 1010.6
20260505090045 13 0 0.0 0.0 0.00 0.08 0.03 91 1010.6
20260505085046 13 0 0.0 0.0 0.00 0.08 0.03 92 1010.7
20260505084043 13 0 0.0 0.0 0.00 0.08 0.03 92 1010.8
20260505083047 13 0 0.0 0.0 0.00 0.08 0.03 93 1010.8
20260505082045 13 0 0.0 0.0 0.00 0.08 0.03 92 1010.8
20260505081045 13 0 0.0 0.0 0.00 0.08 0.03 93 1010.9
20260505080043 13 0 0.0 0.0 0.00 0.08 0.03 96 1010.9
20260505074047 12 0 0.0 0.0 0.00 0.08 0.03 10 1011.0
20260505073044 12 0 0.0 0.0 0.00 0.08 0.03 10 1011.1
20260505071046 12 0 0.0 0.0 0.00 0.08 0.03 10 1011.2
20260505065046 11 0 0.0 0.0 0.00 0.08 0.03 10 1011.4
20260505064044 11 0 0.0 0.0 0.00 0.08 0.03 10 1011.3
20260505060043 11 0 0.0 0.0 0.00 0.08 0.03 10 1011.5
20260505055046 10 0 0.0 0.0 0.00 0.08 0.03 10 1011.5
20260505054046 10 0 0.0 0.0 0.00 0.08 0.03 10 1011.5
20260505053046 10 0 0.0 0.0 0.00 0.08 0.03 10 1011.5
20260505051045 10 0 0.0 0.0 0.00 0.08 0.03 10 1011.4
20260505041043 10 0 0.0 0.0 0.00 0.08 0.03 10 1011.6
20260505040043 10 0 0.0 0.0 0.00 0.08 0.03 10 1011.7
20260505035045 10 0 0.0 0.0 0.00 0.08 0.03 10 1011.7
20260505034045 10 0 0.0 0.0 0.00 0.08 0.03 10 1011.8
20260505033046 10 0 0.0 0.0 0.00 0.08 0.03 10 1011.9
20260505032044 10 0 0.0 0.0 0.00 0.08 0.03 10 1012.1
20260505031045 10 0 0.0 0.0 0.00 0.08 0.03 10 1012.3
20260505030043 10 0 0.0 0.0 0.03 0.08 0.03 10 1012.3
20260505025044 10 0 0.0 0.0 0.03 0.08 0.03 10 1012.3
20260505024046 10 0 0.0 0.0 0.03 0.08 0.03 10 1012.3
20260505023049 10 0 0.0 0.0 0.03 0.08 0.03 10 1012.4
20260505021049 10 0 0.0 0.0 0.03 0.08 0.03 10 1012.5
20260505014045 9 0 0.0 0.0 0.00 0.05 0.00 10 1012.5
20260505013042 9 0 0.0 0.0 0.00 0.05 0.00 10 1012.4
20260505011044 9 0 0.0 0.0 0.00 0.05 0.00 10 1012.4
20260505010047 9 0 0.0 0.0 0.00 0.05 0.00 10 1012.3
20260505005049 10 0 0.0 0.0 0.00 0.05 0.00 10 1012.3
20260505004047 10 0 0.0 0.0 0.00 0.05 0.00 10 1012.5
20260505003045 10 0 0.0 0.0 0.00 0.05 0.00 10 1012.7
20260505002042 10 0 0.0 0.0 0.00 0.05 0.00 10 1012.9
20260505001045 10 0 0.0 0.0 0.00 0.05 0.00 10 1012.9
20260505000046 10 0 0.0 0.0 0.00 0.05 0.00 10 1013.0
20260504235046 10 0 0.0 0.0 0.00 0.05 0.00 10 1013.0
20260504234046 10 0 0.0 0.0 0.00 0.05 0.00 10 1013.0
20260504233048 10 0 0.0 0.0 0.00 0.05 0.00 10 1013.2
20260504231049 10 0 0.0 0.0 0.00 0.05 0.00 10 1013.3
20260504230045 10 0 0.0 0.0 0.00 0.05 0.00 10 1013.3
20260504225047 10 0 0.0 0.0 0.00 0.05 0.00 99 1013.6
20260504224051 10 0 0.0 0.0 0.00 0.05 0.00 99 1013.6
20260504223046 10 0 0.0 0.0 0.00 0.05 0.00 99 1013.5
20260504222050 10 0 0.0 0.0 0.00 0.05 0.00 99 1013.6
20260504221048 10 0 0.0 0.0 0.00 0.05 0.00 99 1013.8
20260504220047 11 0 0.0 0.0 0.00 0.05 0.00 99 1013.8
20260504215047 11 0 0.0 0.0 0.00 0.05 0.05 99 1013.8
20260504214052 11 0 0.0 0.0 0.00 0.05 0.05 99 1013.8
20260504213050 11 0 0.0 0.0 0.00 0.05 0.05 98 1014.0
20260504212052 11 0 0.0 0.0 0.00 0.05 0.05 98 1014.0
20260504211050 11 0 0.0 0.0 0.00 0.05 0.05 98 1014.1
20260504210052 11 0 0.0 0.0 0.00 0.05 0.05 98 1014.1
20260504204051 11 0 0.0 0.0 0.00 0.05 0.05 97 1014.2
20260504203054 11 0 0.0 0.0 0.00 0.05 0.05 97 1014.2
20260504202058 11 0 0.0 0.0 0.00 0.05 0.05 97 1014.2
20260504200053 11 0 0.0 0.0 0.00 0.05 0.05 97 1014.1
20260504195050 11 0 0.0 0.0 0.00 0.05 0.05 97 1014.1
20260504194049 11 0 0.0 0.0 0.00 0.05 0.05 97 1014.0
20260504193046 11 0 0.0 0.0 0.00 0.05 0.05 96 1013.9
20260504192046 12 0 0.0 0.0 0.00 0.05 0.05 95 1013.8
20260504190049 12 0 0.0 0.0 0.00 0.05 0.05 94 1013.8
20260504184049 12 0 0.0 0.0 0.00 0.05 0.05 93 1013.6
20260504183050 12 0 0.0 0.0 0.00 0.05 0.05 92 1013.5
20260504180047 13 0 0.0 0.0 0.00 0.05 0.05 92 1013.5
20260504175048 13 0 0.0 0.0 0.00 0.05 0.05 93 1013.7
20260504174050 13 0 0.0 0.0 0.00 0.05 0.05 93 1013.7
20260504173051 13 0 0.0 0.0 0.00 0.05 0.05 93 1013.8
20260504172046 13 0 0.0 0.0 0.00 0.05 0.05 93 1013.9
20260504171050 13 0 0.0 0.0 0.00 0.05 0.05 92 1013.8
20260504151047 13 0 0.0 0.0 0.03 0.05 0.05 90 1014.1
20260504141044 14 0 0.0 0.0 0.03 0.05 0.05 91 1014.4